Terug naar catalogus

COSMOS 2251 DEB

ActiefLEO
NORAD 36074·DEBRIS·🇷🇺 Russia

Gelanceerd Jun 16, 1993 vanaf Plesetsk Cosmodrome

Loading…

Volgende Passages (komende 24 uur)

TLE

VerouderendSource: Space-Track

Epoch: Sep 11, 2026, 06:02 UTC

1 36074U 93036AYM 26254.25208185  .00001843  00000-0  52523-3 0  9997
2 36074  73.9912 191.6842 0045298 222.5738 137.1905 14.45372381898459

Volg COSMOS 2251 DEB in realtime met AllMySat

Download on the App Store